LHA2528 LDDU-EDDP

Flight info

Callsign LHA2528
Flight time 2h 6m
Altitude 32000
Route MADOS L187 GEBNI DCT EMKES DCT KOPRY DCT SASAL DCT LOKVU DCT LEGAZ DCT BEFRE T204 IVDUF T951 YAWOY
Aircraft A319/M-SDE1E2FGIRWYZ/S

Departure

Time 2026-05-07 07:21
Airport Dubrovnik Ruđer Bošković Airport (LDDU)

Arrival

Time 2026-05-07 09:27
Airport Leipzig/Halle Airport (EDDP)
Time Latitude Longitude Altitude Speed Heading
2026-05-07 06:58 42.56139 18.26148 520 ft 0 kts 208°
2026-05-07 07:12 42.56149 18.26156 520 ft 3 kts 208°
2026-05-07 07:12 42.56172 18.26173 520 ft 3 kts 209°
2026-05-07 07:12 42.56195 18.26190 521 ft 3 kts 209°
2026-05-07 07:13 42.56212 18.26214 521 ft 3 kts 255°
2026-05-07 07:13 42.56209 18.26245 521 ft 0 kts 302°
2026-05-07 07:16 42.56209 18.26244 521 ft 0 kts 303°
2026-05-07 07:16 42.56211 18.26239 521 ft 0 kts 303°
2026-05-07 07:16 42.56216 18.26223 521 ft 4 kts 279°
2026-05-07 07:17 42.56223 18.26144 521 ft 12 kts 277°
2026-05-07 07:17 42.56259 18.26019 522 ft 15 kts 298°
2026-05-07 07:17 42.56311 18.25886 523 ft 15 kts 298°
2026-05-07 07:17 42.56364 18.25753 522 ft 16 kts 298°
2026-05-07 07:18 42.56421 18.25607 521 ft 18 kts 297°
2026-05-07 07:18 42.56488 18.25442 515 ft 21 kts 299°
2026-05-07 07:18 42.56562 18.25249 507 ft 24 kts 298°
2026-05-07 07:18 42.56646 18.25041 504 ft 24 kts 298°
2026-05-07 07:19 42.56712 18.24872 504 ft 19 kts 298°
2026-05-07 07:19 42.56779 18.24717 506 ft 14 kts 304°
2026-05-07 07:19 42.56840 18.24666 507 ft 9 kts 346°
2026-05-07 07:19 42.56905 18.24654 507 ft 9 kts
2026-05-07 07:20 42.56955 18.24712 506 ft 11 kts 81°
2026-05-07 07:20 42.56928 18.24826 504 ft 14 kts 118°
2026-05-07 07:20 42.56913 18.24864 504 ft 0 kts 118°
2026-05-07 07:21 42.56875 18.24960 504 ft 35 kts 117°
2026-05-07 07:21 42.56636 18.25572 520 ft 109 kts 118°
2026-05-07 07:21 42.56171 18.26745 587 ft 163 kts 117°
2026-05-07 07:21 42.55634 18.28040 1377 ft 159 kts 117°
2026-05-07 07:22 42.55117 18.29347 2160 ft 161 kts 115°
2026-05-07 07:22 42.54586 18.30716 2806 ft 172 kts 115°
2026-05-07 07:22 42.54002 18.32218 3315 ft 189 kts 115°
2026-05-07 07:22 42.53184 18.33713 3803 ft 212 kts 139°
2026-05-07 07:23 42.51767 18.34496 4250 ft 239 kts 173°
2026-05-07 07:23 42.50087 18.33988 4711 ft 265 kts 210°
2026-05-07 07:23 42.48737 18.32229 5346 ft 279 kts 231°
2026-05-07 07:23 42.47370 18.30358 6195 ft 284 kts 211°
2026-05-07 07:24 42.45550 18.29410 7053 ft 285 kts 191°
2026-05-07 07:24 42.43618 18.28907 7656 ft 289 kts 188°
2026-05-07 07:24 42.41618 18.28438 7972 ft 291 kts 189°
2026-05-07 07:24 42.39646 18.27922 8008 ft 291 kts 190°
2026-05-07 07:25 42.35704 18.26739 8007 ft 291 kts 192°
2026-05-07 07:25 42.33729 18.26112 8005 ft 291 kts 192°
2026-05-07 07:25 42.31765 18.25481 8004 ft 291 kts 192°
2026-05-07 07:26 42.29814 18.24854 8002 ft 291 kts 192°
2026-05-07 07:26 42.27827 18.24215 8000 ft 291 kts 192°
2026-05-07 07:26 42.25919 18.23414 7987 ft 292 kts 206°
2026-05-07 07:26 42.24321 18.21699 7990 ft 293 kts 232°
2026-05-07 07:27 42.23386 18.19305 7993 ft 291 kts 256°
2026-05-07 07:27 42.23219 18.16641 7994 ft 287 kts 279°
2026-05-07 07:27 42.23822 18.14099 7995 ft 282 kts 302°
2026-05-07 07:27 42.25062 18.12103 7995 ft 277 kts 324°
2026-05-07 07:28 42.26719 18.10896 7995 ft 272 kts 346°
2026-05-07 07:28 42.28575 18.10587 7995 ft 269 kts
2026-05-07 07:28 42.30390 18.11137 8001 ft 267 kts 19°
2026-05-07 07:28 42.32161 18.11963 8254 ft 275 kts 20°
2026-05-07 07:29 42.33960 18.12826 9168 ft 275 kts 20°
2026-05-07 07:29 42.35739 18.13670 10092 ft 275 kts 19°
2026-05-07 07:29 42.37557 18.14520 10732 ft 285 kts 19°
2026-05-07 07:29 42.39510 18.15422 11131 ft 304 kts 18°
2026-05-07 07:30 42.41550 18.16358 11486 ft 322 kts 18°
2026-05-07 07:30 42.43726 18.17354 11913 ft 337 kts 18°
2026-05-07 07:30 42.45945 18.18369 12626 ft 341 kts 18°
2026-05-07 07:30 42.48191 18.19397 13433 ft 342 kts 18°
2026-05-07 07:31 42.50464 18.20438 14213 ft 344 kts 18°
2026-05-07 07:31 42.52716 18.21471 14954 ft 345 kts 18°
2026-05-07 07:31 42.54987 18.22513 15674 ft 347 kts 18°
2026-05-07 07:31 42.57292 18.23558 16380 ft 348 kts 15°
2026-05-07 07:32 42.59666 18.24036 17027 ft 350 kts 359°
2026-05-07 07:32 42.62077 18.23529 17712 ft 352 kts 348°
2026-05-07 07:32 42.64430 18.22756 18349 ft 353 kts 347°
2026-05-07 07:32 42.66813 18.21952 18951 ft 355 kts 347°
2026-05-07 07:33 42.69194 18.21150 19544 ft 357 kts 347°
2026-05-07 07:33 42.71603 18.20342 19978 ft 358 kts 347°
2026-05-07 07:33 42.74043 18.19527 20101 ft 358 kts 347°
2026-05-07 07:33 42.76450 18.18726 20103 ft 357 kts 348°
2026-05-07 07:34 42.78830 18.17934 20104 ft 357 kts 348°
2026-05-07 07:34 42.81250 18.17129 20105 ft 357 kts 348°
2026-05-07 07:34 42.83660 18.16327 20105 ft 357 kts 348°
2026-05-07 07:34 42.86087 18.15521 20202 ft 362 kts 348°
2026-05-07 07:35 42.88514 18.14713 20768 ft 363 kts 348°
2026-05-07 07:35 42.90945 18.13897 21390 ft 362 kts 348°
2026-05-07 07:35 42.93401 18.13073 21898 ft 365 kts 349°
2026-05-07 07:35 42.95882 18.12242 22359 ft 368 kts 349°
2026-05-07 07:36 42.98378 18.11407 22803 ft 371 kts 350°
2026-05-07 07:36 43.00886 18.10568 23235 ft 374 kts 351°
2026-05-07 07:36 43.03418 18.09724 23658 ft 377 kts 351°
2026-05-07 07:36 43.05972 18.08879 24080 ft 380 kts 351°
2026-05-07 07:37 43.08523 18.08035 24542 ft 381 kts 351°
2026-05-07 07:37 43.11098 18.07179 25024 ft 381 kts 351°
2026-05-07 07:37 43.13667 18.06322 25509 ft 382 kts 351°
2026-05-07 07:37 43.16219 18.05467 25969 ft 382 kts 351°
2026-05-07 07:38 43.18803 18.04600 26421 ft 383 kts 351°
2026-05-07 07:38 43.21390 18.03731 26854 ft 384 kts 351°
2026-05-07 07:38 43.23964 18.02867 27281 ft 384 kts 351°
2026-05-07 07:38 43.26555 18.01997 27721 ft 384 kts 350°
2026-05-07 07:39 43.29151 18.01121 28141 ft 385 kts 350°
2026-05-07 07:39 43.31756 18.00243 28533 ft 385 kts 350°
2026-05-07 07:39 43.34354 17.99363 28911 ft 386 kts 350°
2026-05-07 07:39 43.36937 17.98490 29341 ft 385 kts 350°
2026-05-07 07:40 43.39503 17.97623 29869 ft 381 kts 349°
2026-05-07 07:40 43.42041 17.96764 30407 ft 376 kts 349°
2026-05-07 07:40 43.44590 17.95897 30861 ft 374 kts 349°
2026-05-07 07:40 43.47102 17.95044 31214 ft 374 kts 349°
2026-05-07 07:41 43.49603 17.94195 31544 ft 374 kts 349°
2026-05-07 07:41 43.52139 17.93331 31861 ft 374 kts 348°
2026-05-07 07:41 43.54629 17.92488 32089 ft 374 kts 348°
2026-05-07 07:42 43.59669 17.90768 32103 ft 374 kts 348°
2026-05-07 07:42 43.64711 17.89043 32099 ft 374 kts 348°
2026-05-07 07:43 43.69758 17.87321 32095 ft 374 kts 348°
2026-05-07 07:43 43.74794 17.85593 32094 ft 375 kts 348°
2026-05-07 07:44 43.79843 17.83858 32094 ft 375 kts 348°
2026-05-07 07:44 43.84915 17.82120 32095 ft 375 kts 348°
2026-05-07 07:45 43.89942 17.80389 32095 ft 374 kts 348°
2026-05-07 07:45 43.94972 17.78651 32092 ft 374 kts 348°
2026-05-07 07:46 44.00029 17.76907 32087 ft 375 kts 348°
2026-05-07 07:46 44.05052 17.75166 32083 ft 375 kts 348°
2026-05-07 07:47 44.10099 17.73418 32081 ft 374 kts 348°
2026-05-07 07:47 44.15140 17.71666 32078 ft 374 kts 348°
2026-05-07 07:48 44.20191 17.69912 32073 ft 375 kts 348°
2026-05-07 07:48 44.25240 17.68151 32067 ft 375 kts 348°
2026-05-07 07:49 44.30299 17.66383 32063 ft 375 kts 348°
2026-05-07 07:49 44.35316 17.64632 32059 ft 375 kts 348°
2026-05-07 07:50 44.40381 17.62859 32052 ft 375 kts 348°
2026-05-07 07:50 44.45404 17.61095 32042 ft 375 kts 348°
2026-05-07 07:51 44.50471 17.59314 32033 ft 375 kts 348°
2026-05-07 07:51 44.55495 17.57540 32028 ft 376 kts 348°
2026-05-07 07:52 44.60558 17.55758 32025 ft 375 kts 348°
2026-05-07 07:52 44.65584 17.53983 32025 ft 375 kts 348°
2026-05-07 07:53 44.70649 17.52187 32023 ft 375 kts 348°
2026-05-07 07:53 44.75675 17.50404 32025 ft 375 kts 348°
2026-05-07 07:54 44.80716 17.48613 32023 ft 375 kts 348°
2026-05-07 07:54 44.85782 17.46811 32022 ft 375 kts 348°
2026-05-07 07:55 44.90823 17.45007 32023 ft 375 kts 348°
2026-05-07 07:55 44.95877 17.43201 32023 ft 375 kts 348°
2026-05-07 07:56 45.00913 17.41406 32023 ft 377 kts 347°
2026-05-07 07:56 45.06007 17.39587 32022 ft 378 kts 347°
2026-05-07 07:57 45.11118 17.37753 32025 ft 381 kts 346°
2026-05-07 07:57 45.16234 17.35908 32024 ft 382 kts 346°
2026-05-07 07:58 45.21390 17.34041 32025 ft 383 kts 345°
2026-05-07 07:58 45.26513 17.32187 32024 ft 382 kts 345°
2026-05-07 07:59 45.31654 17.30325 32024 ft 382 kts 345°
2026-05-07 07:59 45.36790 17.28462 32024 ft 382 kts 345°
2026-05-07 08:00 45.41948 17.26588 32024 ft 382 kts 345°
2026-05-07 08:00 45.47091 17.24716 32024 ft 382 kts 345°
2026-05-07 08:01 45.52219 17.22845 32024 ft 382 kts 345°
2026-05-07 08:01 45.57342 17.20974 32024 ft 382 kts 345°
2026-05-07 08:02 45.62500 17.19085 32024 ft 382 kts 345°
2026-05-07 08:02 45.67617 17.17209 32024 ft 382 kts 345°
2026-05-07 08:03 45.72773 17.15313 32024 ft 382 kts 345°
2026-05-07 08:03 45.77913 17.13422 32024 ft 382 kts 345°
2026-05-07 08:04 45.83033 17.11533 32020 ft 382 kts 345°
2026-05-07 08:04 45.88150 17.09642 32009 ft 382 kts 345°
2026-05-07 08:05 45.93313 17.07730 31995 ft 383 kts 345°
2026-05-07 08:05 45.98455 17.05823 31982 ft 383 kts 345°
2026-05-07 08:06 46.03598 17.03912 31974 ft 383 kts 345°
2026-05-07 08:06 46.08708 17.02009 31972 ft 382 kts 345°
2026-05-07 08:07 46.13844 17.00094 31972 ft 381 kts 345°
2026-05-07 08:07 46.18961 16.98182 31970 ft 380 kts 345°
2026-05-07 08:08 46.24010 16.96251 31970 ft 378 kts 343°
2026-05-07 08:08 46.29026 16.93987 31970 ft 377 kts 342°
2026-05-07 08:09 46.33979 16.91707 31970 ft 376 kts 342°
2026-05-07 08:09 46.38946 16.89419 31970 ft 374 kts 342°
2026-05-07 08:10 46.43888 16.87138 31970 ft 372 kts 342°
2026-05-07 08:10 46.48795 16.84871 31970 ft 371 kts 342°
2026-05-07 08:11 46.53663 16.82616 31970 ft 370 kts 342°
2026-05-07 08:11 46.58564 16.80342 31970 ft 368 kts 342°
2026-05-07 08:12 46.63419 16.78085 31969 ft 367 kts 342°
2026-05-07 08:12 46.68275 16.75825 31969 ft 367 kts 342°
2026-05-07 08:13 46.73115 16.73566 31969 ft 367 kts 342°
2026-05-07 08:13 46.77970 16.71297 31969 ft 367 kts 342°
2026-05-07 08:14 46.82813 16.69029 31969 ft 367 kts 342°
2026-05-07 08:14 46.87654 16.66758 31969 ft 367 kts 342°
2026-05-07 08:15 46.92498 16.64488 31970 ft 366 kts 342°
2026-05-07 08:15 46.97339 16.62216 31970 ft 365 kts 341°
2026-05-07 08:16 47.02156 16.59946 31969 ft 364 kts 340°
2026-05-07 08:16 47.06967 16.57669 31969 ft 363 kts 339°
2026-05-07 08:17 47.11745 16.55397 31975 ft 363 kts 339°
2026-05-07 08:17 47.16531 16.53123 31981 ft 363 kts 339°
2026-05-07 08:18 47.21336 16.50839 31989 ft 363 kts 339°
2026-05-07 08:18 47.26122 16.48558 31996 ft 363 kts 339°
2026-05-07 08:19 47.30964 16.46473 32001 ft 364 kts 341°
2026-05-07 08:19 47.35848 16.44558 32002 ft 364 kts 342°
2026-05-07 08:20 47.40732 16.42645 32003 ft 364 kts 342°
2026-05-07 08:20 47.45617 16.40731 32003 ft 364 kts 342°
2026-05-07 08:21 47.50525 16.38803 32003 ft 364 kts 342°
2026-05-07 08:21 47.55412 16.36882 32003 ft 364 kts 342°
2026-05-07 08:22 47.60312 16.34951 32003 ft 364 kts 341°
2026-05-07 08:22 47.65168 16.33032 32003 ft 363 kts 341°
2026-05-07 08:23 47.69982 16.31129 32003 ft 363 kts 341°
2026-05-07 08:23 47.74868 16.29192 32003 ft 363 kts 341°
2026-05-07 08:24 47.79763 16.27249 32003 ft 363 kts 341°
2026-05-07 08:24 47.84630 16.25314 32003 ft 363 kts 341°
2026-05-07 08:25 47.89486 16.23378 31991 ft 364 kts 341°
2026-05-07 08:25 47.94371 16.21427 31977 ft 364 kts 341°
2026-05-07 08:26 48.01709 16.18489 31970 ft 364 kts 341°
2026-05-07 08:26 48.06558 16.16542 31969 ft 364 kts 341°
2026-05-07 08:27 48.11463 16.14569 31972 ft 364 kts 341°
2026-05-07 08:27 48.16347 16.12602 31970 ft 364 kts 341°
2026-05-07 08:28 48.21206 16.10640 31969 ft 364 kts 341°
2026-05-07 08:28 48.26099 16.08661 31969 ft 364 kts 341°
2026-05-07 08:29 48.30980 16.06683 31969 ft 364 kts 341°
2026-05-07 08:29 48.35851 16.04705 31969 ft 364 kts 341°
2026-05-07 08:30 48.40740 16.02715 31969 ft 364 kts 341°
2026-05-07 08:30 48.45611 16.00729 31967 ft 364 kts 341°
2026-05-07 08:31 48.50467 15.98745 31963 ft 364 kts 341°
2026-05-07 08:31 48.55350 15.96747 31959 ft 364 kts 341°
2026-05-07 08:32 48.60223 15.94748 31953 ft 364 kts 341°
2026-05-07 08:32 48.65086 15.92749 31948 ft 364 kts 341°
2026-05-07 08:33 48.69976 15.90736 31944 ft 364 kts 341°
2026-05-07 08:33 48.74849 15.88725 31943 ft 364 kts 341°
2026-05-07 08:34 48.79706 15.86718 31943 ft 364 kts 341°
2026-05-07 08:34 48.84408 15.84769 31943 ft 364 kts 341°
2026-05-07 08:35 48.89214 15.82489 31942 ft 362 kts 338°
2026-05-07 08:35 48.93938 15.79877 31943 ft 363 kts 337°
2026-05-07 08:36 48.98667 15.77244 31942 ft 363 kts 337°
2026-05-07 08:36 49.03420 15.74593 31941 ft 366 kts 336°
2026-05-07 08:37 49.08197 15.71917 31941 ft 369 kts 335°
2026-05-07 08:37 49.13036 15.69198 31943 ft 372 kts 334°
2026-05-07 08:38 49.17847 15.66481 31943 ft 371 kts 334°
2026-05-07 08:38 49.22696 15.63739 31943 ft 371 kts 334°
2026-05-07 08:39 49.27517 15.61010 31943 ft 372 kts 334°
2026-05-07 08:39 49.32360 15.58263 31943 ft 371 kts 334°
2026-05-07 08:40 49.37242 15.55489 31943 ft 371 kts 335°
2026-05-07 08:40 49.42086 15.52732 31943 ft 372 kts 334°
2026-05-07 08:41 49.46916 15.49976 31943 ft 372 kts 334°
2026-05-07 08:41 49.51785 15.47192 31943 ft 372 kts 334°
2026-05-07 08:42 49.56618 15.44423 31943 ft 372 kts 334°
2026-05-07 08:42 49.61489 15.41626 31943 ft 372 kts 334°
2026-05-07 08:43 49.66220 15.38904 31942 ft 372 kts 334°
2026-05-07 08:43 49.71093 15.36094 31943 ft 372 kts 334°
2026-05-07 08:44 49.75935 15.33296 31944 ft 371 kts 334°
2026-05-07 08:44 49.80800 15.30479 31943 ft 371 kts 334°
2026-05-07 08:45 49.85630 15.27677 31941 ft 371 kts 334°
2026-05-07 08:45 49.90456 15.24871 31938 ft 371 kts 334°
2026-05-07 08:46 49.95336 15.22027 31934 ft 371 kts 334°
2026-05-07 08:46 50.00205 15.19183 31930 ft 371 kts 334°
2026-05-07 08:47 50.04027 15.16947 31927 ft 371 kts 334°
2026-05-07 08:47 50.09421 15.13785 31924 ft 371 kts 334°
2026-05-07 08:48 50.12648 15.11890 31922 ft 371 kts 334°
2026-05-07 08:48 50.17508 15.09030 31917 ft 372 kts 334°
2026-05-07 08:49 50.22380 15.06157 31915 ft 373 kts 334°
2026-05-07 08:49 50.27240 15.03284 31914 ft 373 kts 334°
2026-05-07 08:50 50.32116 15.00395 31914 ft 374 kts 334°
2026-05-07 08:50 50.36997 14.97498 31914 ft 375 kts 333°
2026-05-07 08:51 50.41874 14.94595 31914 ft 376 kts 333°
2026-05-07 08:51 50.46781 14.91669 31914 ft 376 kts 333°
2026-05-07 08:52 50.51708 14.88726 31914 ft 377 kts 333°
2026-05-07 08:52 50.56654 14.85763 31914 ft 378 kts 333°
2026-05-07 08:53 50.61605 14.82790 31914 ft 378 kts 333°
2026-05-07 08:53 50.66637 14.80083 31914 ft 381 kts 337°
2026-05-07 08:54 50.71847 14.78003 31915 ft 384 kts 340°
2026-05-07 08:54 50.77054 14.76083 31914 ft 383 kts 340°
2026-05-07 08:55 50.82276 14.74161 31914 ft 383 kts 340°
2026-05-07 08:55 50.87464 14.72249 31914 ft 383 kts 340°
2026-05-07 08:56 50.92644 14.70337 31914 ft 384 kts 339°
2026-05-07 08:56 50.97826 14.68325 31912 ft 385 kts 338°
2026-05-07 08:57 51.00405 14.67285 31683 ft 386 kts 338°
2026-05-07 08:57 51.02998 14.66239 31431 ft 386 kts 338°
2026-05-07 08:57 51.05601 14.65189 31178 ft 386 kts 337°
2026-05-07 08:57 51.08173 14.64151 30929 ft 386 kts 337°
2026-05-07 08:58 51.10309 14.63289 30723 ft 386 kts 337°
2026-05-07 08:58 51.10681 14.63138 30688 ft 386 kts 337°
2026-05-07 08:59 51.13957 14.61814 30372 ft 388 kts 337°
2026-05-07 08:59 51.16535 14.60561 30109 ft 380 kts 329°
2026-05-07 08:59 51.18689 14.58512 29866 ft 371 kts 316°
2026-05-07 08:59 51.20493 14.55595 29612 ft 366 kts 304°
2026-05-07 09:00 51.21770 14.52097 29358 ft 365 kts 292°
2026-05-07 09:00 51.22475 14.48168 29103 ft 368 kts 281°
2026-05-07 09:00 51.22566 14.44004 28852 ft 373 kts 271°
2026-05-07 09:00 51.22435 14.39840 28600 ft 374 kts 271°
2026-05-07 09:01 51.22280 14.35661 28347 ft 374 kts 270°
2026-05-07 09:01 51.22144 14.32258 28142 ft 373 kts 269°
2026-05-07 09:01 51.21972 14.28069 27888 ft 372 kts 269°
2026-05-07 09:01 51.21794 14.23884 27632 ft 371 kts 269°
2026-05-07 09:02 51.21614 14.19750 27379 ft 370 kts 269°
2026-05-07 09:02 51.21430 14.15601 27124 ft 369 kts 269°
2026-05-07 09:02 51.21244 14.11472 26869 ft 368 kts 268°
2026-05-07 09:02 51.21056 14.07337 26614 ft 367 kts 268°
2026-05-07 09:03 51.20869 14.03286 26363 ft 366 kts 268°
2026-05-07 09:03 51.20679 13.99181 26107 ft 365 kts 268°
2026-05-07 09:03 51.20490 13.95145 25856 ft 364 kts 268°
2026-05-07 09:03 51.20299 13.91122 25604 ft 363 kts 268°
2026-05-07 09:04 51.20106 13.87075 25351 ft 362 kts 268°
2026-05-07 09:04 51.19913 13.83042 25098 ft 361 kts 267°
2026-05-07 09:04 51.19721 13.79075 24848 ft 360 kts 267°
2026-05-07 09:04 51.19525 13.75043 24593 ft 359 kts 267°
2026-05-07 09:05 51.19331 13.71079 24343 ft 358 kts 267°
2026-05-07 09:05 51.19131 13.67045 24087 ft 357 kts 267°
2026-05-07 09:05 51.18936 13.63124 23838 ft 357 kts 267°
2026-05-07 09:05 51.18739 13.59191 23587 ft 356 kts 266°
2026-05-07 09:06 51.18541 13.55245 23335 ft 355 kts 266°
2026-05-07 09:06 51.18342 13.51300 23083 ft 354 kts 266°
2026-05-07 09:06 51.18141 13.47370 22831 ft 354 kts 266°
2026-05-07 09:06 51.17940 13.43478 22581 ft 353 kts 266°
2026-05-07 09:07 51.17739 13.39588 22331 ft 352 kts 266°
2026-05-07 09:07 51.17545 13.35664 22078 ft 351 kts 267°
2026-05-07 09:07 51.17443 13.31774 21829 ft 350 kts 268°
2026-05-07 09:07 51.17423 13.27884 21577 ft 349 kts 269°
2026-05-07 09:08 51.17408 13.24008 21325 ft 348 kts 269°
2026-05-07 09:08 51.17394 13.20170 21076 ft 347 kts 269°
2026-05-07 09:08 51.17382 13.16891 20862 ft 347 kts 268°
2026-05-07 09:08 51.17370 13.13046 20610 ft 346 kts 268°
2026-05-07 09:09 51.17355 13.09206 20358 ft 345 kts 267°
2026-05-07 09:09 51.17338 13.05389 20107 ft 344 kts 266°
2026-05-07 09:09 51.17319 13.01602 19857 ft 344 kts 266°
2026-05-07 09:09 51.17297 12.97764 19604 ft 345 kts 265°
2026-05-07 09:10 51.17273 12.93886 19348 ft 345 kts 265°
2026-05-07 09:10 51.17245 12.90069 19098 ft 345 kts 265°
2026-05-07 09:10 51.17279 12.86253 18846 ft 347 kts 269°
2026-05-07 09:10 51.17609 12.82413 18594 ft 352 kts 276°
2026-05-07 09:11 51.18280 12.78557 18338 ft 357 kts 283°
2026-05-07 09:11 51.19191 12.74847 18087 ft 358 kts 286°
2026-05-07 09:11 51.20132 12.71260 17841 ft 359 kts 287°
2026-05-07 09:11 51.21106 12.67584 17585 ft 358 kts 287°
2026-05-07 09:12 51.22084 12.63875 17309 ft 358 kts 287°
2026-05-07 09:12 51.23049 12.60193 16993 ft 357 kts 287°
2026-05-07 09:12 51.23976 12.56647 16581 ft 356 kts 287°
2026-05-07 09:12 51.24903 12.52943 16097 ft 351 kts 283°
2026-05-07 09:13 51.25466 12.49151 15595 ft 344 kts 273°
2026-05-07 09:13 51.25596 12.45340 15084 ft 338 kts 264°
2026-05-07 09:13 51.25458 12.41588 14584 ft 336 kts 262°
2026-05-07 09:13 51.25277 12.37894 14094 ft 335 kts 261°
2026-05-07 09:14 51.25091 12.34139 13597 ft 335 kts 261°
2026-05-07 09:14 51.24918 12.30448 13112 ft 334 kts 262°
2026-05-07 09:14 51.24939 12.26686 12622 ft 336 kts 270°
2026-05-07 09:14 51.25263 12.22958 12153 ft 338 kts 277°
2026-05-07 09:15 51.25789 12.19408 11701 ft 337 kts 280°
2026-05-07 09:15 51.26374 12.15848 11221 ft 337 kts 280°
2026-05-07 09:15 51.26945 12.12389 10772 ft 335 kts 280°
2026-05-07 09:15 51.27500 12.08989 10533 ft 326 kts 280°
2026-05-07 09:16 51.28061 12.05526 10384 ft 313 kts 279°
2026-05-07 09:16 51.28429 12.02202 10234 ft 298 kts 270°
2026-05-07 09:16 51.28465 11.98978 10100 ft 283 kts 262°
2026-05-07 09:16 51.28328 11.95894 9921 ft 276 kts 260°
2026-05-07 09:17 51.28157 11.92845 9561 ft 276 kts 260°
2026-05-07 09:17 51.27988 11.89791 9217 ft 276 kts 261°
2026-05-07 09:17 51.27825 11.86743 8898 ft 275 kts 261°
2026-05-07 09:17 51.27668 11.83712 8588 ft 274 kts 261°
2026-05-07 09:18 51.27514 11.80675 8271 ft 274 kts 261°
2026-05-07 09:18 51.27360 11.77652 7958 ft 273 kts 262°
2026-05-07 09:18 51.27258 11.74602 7631 ft 276 kts 272°
2026-05-07 09:18 51.27826 11.71688 7294 ft 280 kts 302°
2026-05-07 09:19 51.29212 11.69543 6972 ft 277 kts 334°
2026-05-07 09:19 51.31028 11.68702 6673 ft 273 kts 357°
2026-05-07 09:19 51.32922 11.68505 6372 ft 271 kts
2026-05-07 09:19 51.34788 11.68375 6066 ft 269 kts
2026-05-07 09:20 51.36633 11.68210 5760 ft 267 kts
2026-05-07 09:20 51.38451 11.68433 5472 ft 257 kts 23°
2026-05-07 09:20 51.39915 11.69961 5159 ft 246 kts 52°
2026-05-07 09:20 51.40689 11.72305 4851 ft 240 kts 78°
2026-05-07 09:21 51.40886 11.74939 4607 ft 235 kts 86°
2026-05-07 09:21 51.40997 11.77538 4359 ft 231 kts 86°
2026-05-07 09:21 51.41108 11.80093 4118 ft 227 kts 86°
2026-05-07 09:21 51.41222 11.82565 3887 ft 223 kts 85°
2026-05-07 09:22 51.41342 11.85048 3658 ft 219 kts 85°
2026-05-07 09:22 51.41460 11.87442 3441 ft 215 kts 85°
2026-05-07 09:22 51.41578 11.89803 3198 ft 205 kts 84°
2026-05-07 09:22 51.41685 11.91975 3097 ft 186 kts 84°
2026-05-07 09:23 51.41783 11.93962 3136 ft 176 kts 84°
2026-05-07 09:23 51.41879 11.95846 3073 ft 162 kts 83°
2026-05-07 09:23 51.41998 11.97639 3082 ft 160 kts 83°
2026-05-07 09:23 51.42108 11.99405 3099 ft 160 kts 83°
2026-05-07 09:24 51.42204 12.01182 2962 ft 156 kts 84°
2026-05-07 09:24 51.42284 12.02899 2752 ft 154 kts 84°
2026-05-07 09:24 51.42360 12.04608 2548 ft 154 kts 84°
2026-05-07 09:24 51.42432 12.06294 2340 ft 150 kts 84°
2026-05-07 09:25 51.42505 12.07965 2142 ft 149 kts 84°
2026-05-07 09:25 51.42578 12.09641 1941 ft 152 kts 82°
2026-05-07 09:25 51.42651 12.11284 1755 ft 146 kts 82°
2026-05-07 09:25 51.42724 12.12927 1558 ft 145 kts 82°
2026-05-07 09:26 51.42796 12.14515 1366 ft 144 kts 82°
2026-05-07 09:26 51.42868 12.16102 1171 ft 140 kts 82°
2026-05-07 09:26 51.42939 12.17645 983 ft 137 kts 82°
2026-05-07 09:26 51.43010 12.19175 803 ft 136 kts 82°
2026-05-07 09:27 51.43079 12.20691 623 ft 135 kts 82°
2026-05-07 09:27 51.43148 12.22182 469 ft 127 kts 83°
2026-05-07 09:27 51.43232 12.24060 468 ft 16 kts 89°
2026-05-07 09:28 51.43172 12.24168 468 ft 15 kts 174°
2026-05-07 09:28 51.43064 12.24181 468 ft 15 kts 175°
2026-05-07 09:28 51.42955 12.24186 468 ft 16 kts 203°
2026-05-07 09:28 51.42858 12.24135 468 ft 14 kts 177°
2026-05-07 09:29 51.42781 12.24144 468 ft 9 kts 175°
2026-05-07 09:29 51.42741 12.24112 468 ft 7 kts 250°
2026-05-07 09:29 51.42735 12.24044 468 ft 3 kts 264°
2026-05-07 09:29 51.42732 12.24001 468 ft 3 kts 265°
2026-05-07 09:30 51.42732 12.23994 469 ft 0 kts 265°